軌道要素
Epoch 2023 Feb. 25.0 TT = JDT 2460000.5
T 2021 Aug. 28.57602 TT Rudenko
q 4.8625087 (2000.0) P Q
z -0.0003602 Peri. 10.30950 -0.17063657 +0.34073949
+/-0.0000006 Node 256.76990 -0.95808530 -0.27651365
e 1.0017517 Incl. 71.75940 -0.23012111 +0.89857487
>From 1589 observations 2020 July 23-2023 June 5, mean residual 0".5.
|